Flag for Italy

Past Weather in Bologna, Italy — Yesterday and Last 2 Weeks

Now
63 °F

Sunny.


Feels Like: 63 °F
Forecast: 75 / 62 °F
Wind: 5 mph from South

Location: Bologna / Borgo Panigale
Current Time: Sep 22, 2020 at 8:13:53 am
Latest Report: Sep 22, 2020 at 7:20 am
Visibility: 10 mi
Pressure29.95 "Hg
Humidity: 94%
Dew Point: 61 °F
Location of BolognaLocation

Past Weather in Bologna — Graph

°F

Bologna Temperature Yesterday

Maximum temperature yesterday: 81 °F (at 4:20 pm)
Minimum temperature yesterday: 63 °F (at 5:50 am)
Average temperature yesterday: 70 °F

High & Low Weather Summary for the Past Weeks

 TemperatureHumidityPressure
High88 °F (Sep 13, 4:50 pm)100% (Sep 7, 11:50 pm)30.30 "Hg (Sep 7, 11:50 pm)
Low59 °F (Sep 20, 7:20 am)35% (Sep 12, 5:20 pm)29.89 "Hg (Sep 7, 6:20 am)
Average73 °F65%30.09 "Hg
* Reported Sep 7 6:20 am — Sep 22 6:50 am, Bologna. Weather by CustomWeather, © 2020

Note: Actual official high and low records may vary slightly from our data, if they occured in-between our weather recording intervals... More about our weather records

Bologna Weather History for the Previous 24 Hours

Scroll right to see more
 ConditionsComfort  
Time TempWeatherWind HumidityBarometerVisibility
6:50 am
Tue, Sep 22
63 °FClear.2 mph94%29.95 "Hg10 mi
6:20 am63 °FClear.5 mph94%29.95 "Hg10 mi
5:50 am63 °FClear.5 mph94%29.95 "Hg10 mi
5:20 am63 °FPassing clouds.6 mph94%29.98 "HgN/A
4:50 am63 °FPassing clouds.7 mph94%29.98 "HgN/A
4:20 am63 °FPassing clouds.5 mph100%29.98 "HgN/A
3:20 am63 °FPassing clouds.6 mph100%29.98 "HgN/A
2:50 am64 °FPassing clouds.7 mph94%29.98 "HgN/A
2:20 am63 °FClear.3 mph100%29.98 "Hg10 mi
1:50 am64 °FClear.3 mph94%29.98 "Hg10 mi
1:20 am64 °FClear.2 mph94%30.01 "Hg10 mi
12:50 am64 °FClear.2 mph94%29.98 "Hg10 mi
12:20 am66 °FClear.2 mph94%30.01 "Hg10 mi
11:50 pm
Mon, Sep 21
66 °FClear.2 mph88%30.01 "Hg10 mi
11:20 pm64 °FClear.3 mph94%30.01 "Hg10 mi
10:50 pm66 °FClear.2 mph88%29.98 "Hg10 mi
10:20 pm66 °FPassing clouds.5 mph88%29.98 "HgN/A
9:50 pm66 °FPassing clouds.7 mph94%29.98 "HgN/A
9:20 pm66 °FLight rain. Passing clouds.3 mph88%29.98 "HgN/A
8:20 pm66 °FRain. Passing clouds.6 mph88%29.98 "Hg4 mi
7:50 pm66 °FThunderstorms. Passing clouds.6 mph88%29.98 "Hg4 mi
7:20 pm66 °FThunderstorms. Passing clouds.8 mph88%29.98 "Hg3 mi
6:50 pm68 °FThunderstorms. Scattered clouds.10 mph83%29.98 "Hg2 mi
6:20 pm77 °FThundershowers. Scattered clouds.9 mph57%29.95 "HgN/A
5:50 pm81 °FScattered showers. Scattered clouds.6 mph54%29.95 "HgN/A
5:20 pm81 °FScattered clouds.6 mph51%29.95 "HgN/A
4:50 pm81 °FScattered clouds.5 mph51%29.95 "HgN/A
4:20 pm81 °FScattered clouds.5 mph54%29.95 "HgN/A
3:50 pm79 °FScattered clouds.6 mph58%29.95 "HgN/A
3:20 pm79 °FScattered clouds.6 mph54%29.98 "HgN/A
2:50 pm79 °FScattered clouds.5 mph54%29.98 "HgN/A
1:50 pm77 °FScattered clouds.6 mph65%29.98 "HgN/A
1:20 pm77 °FScattered clouds.6 mph61%30.01 "HgN/A
12:50 pm77 °FScattered clouds.6 mph61%30.01 "HgN/A
12:20 pm75 °FScattered clouds.6 mph65%30.01 "HgN/A
11:50 am75 °FPassing clouds.2 mph65%30.01 "HgN/A
11:20 am73 °FPassing clouds.3 mph69%30.01 "HgN/A
10:50 am73 °FSunny.3 mph69%30.01 "Hg10 mi
10:20 am72 °FPassing clouds.5 mph73%30.01 "HgN/A
9:50 am70 °FSunny.2 mph73%30.01 "Hg10 mi
9:20 am68 °FPassing clouds.3 mph78%30.01 "HgN/A
8:50 am66 °FPassing clouds.6 mph83%30.01 "HgN/A
8:20 am64 °FPassing clouds.6 mph88%29.98 "HgN/A
Weather by CustomWeather, © 2020

See weather overview